Retour au catalogue

INTELSAT 33E DEB

ActifGEO
NORAD 64410·DEBRIS· XX

Lancé Aug 24, 2016 depuis Guiana Space Centre

Loading…

TLE

FraisSource: Space-Track

Époque: Sep 13, 2026, 22:48 UTC

1 64410U 16053AQ  26256.95010053 -.00000241  00000-0  00000-0 0  9992
2 64410   1.6713  71.2751 0065235  11.6781 349.2840  0.99988327  6778

Suivez INTELSAT 33E DEB en temps réel avec AllMySat

Download on the App Store